Tracking 27122 objects as of 25-Mar-2023
HD Live streaming from Space Station
objects crossing your sky now

FENGYUN 1C DEB

Track FENGYUN 1C DEB now!
10-day predictions


NORAD ID: 33673
Int'l Code: 1999-025DFJ
Perigee: 845.2 km
Apogee: 1,006.5 km
Inclination: 99.4 °
Period: 103.4 minutes
Semi major axis: 7296 km
RCS: 0.0036 m2 (small)
Launch date: May 10, 1999
Source: People's Republic of China (PRC)
Launch site: Taiyaun Space Center, China (TSC)

Note: This is SATELLITE DEBRIS
Your satellite tracking list
Your tracking list is empty




NASA's NSSDC Master Catalog

Two Line Element Set (TLE):
1 33673U 99025DFJ 23083.85445322  .00002029  00000-0  15228-2 0  9999
2 33673  99.4317 103.4023 0110558  31.1519 142.9327 13.92827743760535
Source of the keplerian elements: AFSPC